Time,TemperatureF,DewpointF,PressureIn,WindDirection,WindDirectionDegrees,WindSpeedMPH,WindSpeedGustMPH,Humidity,HourlyPrecipIn,Conditions,Clouds,dailyrainin,SoftwareType,DateUTC
2013-02-08 00:00:00,21.0,19.3,30.09,SW,225,0.0,2.0,93,0.00,,,0.00,Weather View 32 v70,2013-02-08 08:00:00,
2013-02-08 00:05:00,20.8,19.1,30.09,SW,225,0.0,2.0,93,0.00,,,0.00,Weather View 32 v70,2013-02-08 08:05:00,
2013-02-08 00:10:00,20.7,19.0,30.09,SW,225,0.0,2.0,93,0.00,,,0.00,Weather View 32 v70,2013-02-08 08:10:00,
2013-02-08 00:15:00,20.6,18.9,30.10,SW,225,0.0,2.0,93,0.00,,,0.00,Weather View 32 v70,2013-02-08 08:15:00,
2013-02-08 00:20:00,20.8,19.1,30.10,SW,225,0.0,2.0,93,0.00,,,0.00,Weather View 32 v70,2013-02-08 08:20:00,
2013-02-08 00:25:00,20.7,19.0,30.10,SW,225,0.0,2.0,93,0.00,,,0.00,Weather View 32 v70,2013-02-08 08:25:00,
2013-02-08 00:30:00,20.6,18.9,30.10,SW,225,0.0,0.0,93,0.00,,,0.00,Weather View 32 v70,2013-02-08 08:30:00,
2013-02-08 00:35:00,20.4,18.7,30.10,SW,225,0.0,0.0,93,0.00,,,0.00,Weather View 32 v70,2013-02-08 08:35:00,
2013-02-08 00:40:00,20.3,18.6,30.10,SW,225,0.0,0.0,93,0.00,,,0.00,Weather View 32 v70,2013-02-08 08:40:00,
2013-02-08 00:45:00,20.1,18.4,30.10,SW,225,0.0,0.0,93,0.00,,,0.00,Weather View 32 v70,2013-02-08 08:45:00,
2013-02-08 00:50:00,20.2,18.5,30.10,SW,225,0.0,2.0,93,0.00,,,0.00,Weather View 32 v70,2013-02-08 08:50:00,
2013-02-08 00:55:00,20.3,18.6,30.10,SW,225,0.0,2.0,93,0.00,,,0.00,Weather View 32 v70,2013-02-08 08:55:00,
2013-02-08 01:00:00,20.2,18.5,30.10,SW,225,0.0,2.0,93,0.00,,,0.00,Weather View 32 v70,2013-02-08 09:00:00,
2013-02-08 01:06:00,19.9,18.2,30.10,SW,225,0.0,2.0,93,0.00,,,0.00,Weather View 32 v70,2013-02-08 09:06:00,
2013-02-08 01:11:00,19.7,18.0,30.10,SW,225,0.0,2.0,93,0.00,,,0.00,Weather View 32 v70,2013-02-08 09:11:00,
2013-02-08 01:16:00,19.4,17.7,30.10,SW,225,0.0,2.0,93,0.00,,,0.00,Weather View 32 v70,2013-02-08 09:16:00,
2013-02-08 01:21:00,19.4,17.7,30.11,SW,225,1.0,2.0,93,0.00,,,0.00,Weather View 32 v70,2013-02-08 09:21:00,
2013-02-08 01:26:00,19.6,17.9,30.10,SW,225,0.0,2.0,93,0.00,,,0.00,Weather View 32 v70,2013-02-08 09:26:00,
2013-02-08 01:31:00,19.5,17.8,30.10,SW,225,0.0,2.0,93,0.00,,,0.00,Weather View 32 v70,2013-02-08 09:31:00,
2013-02-08 01:36:00,19.1,17.4,30.11,SW,225,0.0,2.0,93,0.00,,,0.00,Weather View 32 v70,2013-02-08 09:36:00,
2013-02-08 01:41:00,19.2,17.5,30.11,SW,225,0.0,2.0,93,0.00,,,0.00,Weather View 32 v70,2013-02-08 09:41:00,
2013-02-08 01:46:00,19.2,17.5,30.11,SW,225,0.0,2.0,93,0.00,,,0.00,Weather View 32 v70,2013-02-08 09:46:00,
2013-02-08 01:51:00,19.2,17.5,30.11,SW,225,0.0,2.0,93,0.00,,,0.00,Weather View 32 v70,2013-02-08 09:51:00,
2013-02-08 01:56:00,19.0,17.3,30.12,SW,225,0.0,2.0,93,0.00,,,0.00,Weather View 32 v70,2013-02-08 09:56:00,
2013-02-08 02:01:00,18.9,17.2,30.12,SW,225,0.0,2.0,93,0.00,,,0.00,Weather View 32 v70,2013-02-08 10:01:00,
2013-02-08 02:06:00,18.9,17.2,30.11,SW,225,0.0,2.0,93,0.00,,,0.00,Weather View 32 v70,2013-02-08 10:06:00,
2013-02-08 02:11:00,18.9,17.2,30.12,SW,225,1.0,2.0,93,0.00,,,0.00,Weather View 32 v70,2013-02-08 10:11:00,
2013-02-08 02:16:00,18.9,17.2,30.12,SW,225,0.0,2.0,93,0.00,,,0.00,Weather View 32 v70,2013-02-08 10:16:00,
2013-02-08 02:21:00,18.8,17.1,30.12,SW,225,1.0,2.0,93,0.00,,,0.00,Weather View 32 v70,2013-02-08 10:21:00,
2013-02-08 02:26:00,18.6,16.9,30.12,SW,225,0.0,2.0,93,0.00,,,0.00,Weather View 32 v70,2013-02-08 10:26:00,
2013-02-08 02:31:00,18.5,16.8,30.12,SW,225,0.0,2.0,93,0.00,,,0.00,Weather View 32 v70,2013-02-08 10:31:00,
2013-02-08 02:36:00,18.3,16.6,30.12,SW,225,0.0,2.0,93,0.00,,,0.00,Weather View 32 v70,2013-02-08 10:36:00,
2013-02-08 02:41:00,18.1,16.4,30.12,SW,225,0.0,2.0,93,0.00,,,0.00,Weather View 32 v70,2013-02-08 10:41:00,
2013-02-08 02:46:00,17.9,16.2,30.12,SW,225,0.0,2.0,93,0.00,,,0.00,Weather View 32 v70,2013-02-08 10:46:00,
2013-02-08 02:51:00,18.0,16.3,30.12,SW,225,0.0,2.0,93,0.00,,,0.00,Weather View 32 v70,2013-02-08 10:51:00,
2013-02-08 02:56:00,17.9,16.2,30.12,SW,225,0.0,2.0,93,0.00,,,0.00,Weather View 32 v70,2013-02-08 10:56:00,
2013-02-08 03:01:00,17.5,15.8,30.12,SW,225,0.0,2.0,93,0.00,,,0.00,Weather View 32 v70,2013-02-08 11:01:00,
2013-02-08 03:06:00,17.4,15.7,30.12,SW,225,0.0,2.0,93,0.00,,,0.00,Weather View 32 v70,2013-02-08 11:06:00,
2013-02-08 03:11:00,17.6,15.9,30.12,SW,225,0.0,2.0,93,0.00,,,0.00,Weather View 32 v70,2013-02-08 11:11:00,
2013-02-08 03:16:00,17.6,15.9,30.12,SW,225,1.0,2.0,93,0.00,,,0.00,Weather View 32 v70,2013-02-08 11:16:00,
2013-02-08 03:21:00,17.6,15.9,30.12,SW,225,0.0,2.0,93,0.00,,,0.00,Weather View 32 v70,2013-02-08 11:21:00,
2013-02-08 03:26:00,17.5,15.8,30.12,SW,225,0.0,2.0,93,0.00,,,0.00,Weather View 32 v70,2013-02-08 11:26:00,
2013-02-08 03:31:00,17.3,15.6,30.12,SW,225,0.0,2.0,93,0.00,,,0.00,Weather View 32 v70,2013-02-08 11:31:00,
2013-02-08 03:36:00,17.2,15.5,30.12,SW,225,0.0,2.0,93,0.00,,,0.00,Weather View 32 v70,2013-02-08 11:36:00,
2013-02-08 03:41:00,17.2,15.5,30.12,SW,225,0.0,2.0,93,0.00,,,0.00,Weather View 32 v70,2013-02-08 11:41:00,
2013-02-08 03:46:00,17.0,15.3,30.12,SW,225,0.0,2.0,93,0.00,,,0.00,Weather View 32 v70,2013-02-08 11:46:00,
2013-02-08 03:51:00,16.8,15.1,30.12,SW,225,0.0,2.0,93,0.00,,,0.00,Weather View 32 v70,2013-02-08 11:51:00,
2013-02-08 03:56:00,16.6,14.9,30.12,SW,225,0.0,2.0,93,0.00,,,0.00,Weather View 32 v70,2013-02-08 11:56:00,
2013-02-08 04:01:00,16.7,15.0,30.12,SW,225,0.0,2.0,93,0.00,,,0.00,Weather View 32 v70,2013-02-08 12:01:00,
2013-02-08 04:06:00,16.7,15.0,30.12,SW,225,0.0,2.0,93,0.00,,,0.00,Weather View 32 v70,2013-02-08 12:06:00,
2013-02-08 04:11:00,16.6,14.9,30.12,SW,225,0.0,2.0,93,0.00,,,0.00,Weather View 32 v70,2013-02-08 12:11:00,
2013-02-08 04:16:00,16.6,14.9,30.12,SW,225,0.0,2.0,93,0.00,,,0.00,Weather View 32 v70,2013-02-08 12:16:00,
2013-02-08 04:21:00,16.7,15.0,30.12,SW,225,0.0,1.0,93,0.00,,,0.00,Weather View 32 v70,2013-02-08 12:21:00,
2013-02-08 04:26:00,16.7,15.0,30.12,SW,225,0.0,1.0,93,0.00,,,0.00,Weather View 32 v70,2013-02-08 12:26:00,
2013-02-08 04:31:00,16.7,15.0,30.12,SW,225,0.0,2.0,93,0.00,,,0.00,Weather View 32 v70,2013-02-08 12:31:00,
2013-02-08 04:36:00,16.7,15.0,30.13,SW,225,0.0,2.0,93,0.00,,,0.00,Weather View 32 v70,2013-02-08 12:36:00,
2013-02-08 04:41:00,16.8,15.1,30.13,SW,225,0.0,2.0,93,0.00,,,0.00,Weather View 32 v70,2013-02-08 12:41:00,
2013-02-08 04:46:00,16.6,14.9,30.13,SW,225,0.0,2.0,93,0.00,,,0.00,Weather View 32 v70,2013-02-08 12:46:00,
2013-02-08 04:51:00,16.6,14.9,30.13,SW,225,2.0,2.0,93,0.00,,,0.00,Weather View 32 v70,2013-02-08 12:51:00,
2013-02-08 04:56:00,16.7,15.0,30.13,SW,225,0.0,2.0,93,0.00,,,0.00,Weather View 32 v70,2013-02-08 12:56:00,
2013-02-08 05:01:00,16.6,14.9,30.13,SW,225,1.0,2.0,93,0.00,,,0.00,Weather View 32 v70,2013-02-08 13:01:00,
2013-02-08 05:06:00,16.4,14.7,30.14,SW,225,0.0,2.0,93,0.00,,,0.00,Weather View 32 v70,2013-02-08 13:06:00,
2013-02-08 05:11:00,16.4,14.7,30.14,SW,225,0.0,2.0,93,0.00,,,0.00,Weather View 32 v70,2013-02-08 13:11:00,
2013-02-08 05:16:00,16.3,14.6,30.14,SW,225,0.0,2.0,93,0.00,,,0.00,Weather View 32 v70,2013-02-08 13:16:00,
2013-02-08 05:21:00,16.2,14.5,30.14,SW,225,0.0,2.0,93,0.00,,,0.00,Weather View 32 v70,2013-02-08 13:21:00,
2013-02-08 05:26:00,16.1,14.4,30.15,SW,225,0.0,2.0,93,0.00,,,0.00,Weather View 32 v70,2013-02-08 13:26:00,
2013-02-08 05:31:00,15.9,14.2,30.15,SW,225,0.0,2.0,93,0.00,,,0.00,Weather View 32 v70,2013-02-08 13:31:00,
2013-02-08 05:36:00,15.8,14.1,30.15,SW,225,0.0,2.0,93,0.00,,,0.00,Weather View 32 v70,2013-02-08 13:36:00,
2013-02-08 05:41:00,15.7,14.0,30.15,SW,225,0.0,2.0,93,0.00,,,0.00,Weather View 32 v70,2013-02-08 13:41:00,
2013-02-08 05:46:00,15.7,14.0,30.15,SW,225,0.0,2.0,93,0.00,,,0.00,Weather View 32 v70,2013-02-08 13:46:00,
2013-02-08 05:51:00,15.8,14.1,30.15,SW,225,0.0,2.0,93,0.00,,,0.00,Weather View 32 v70,2013-02-08 13:51:00,
2013-02-08 05:56:00,15.8,14.1,30.15,SW,225,0.0,1.0,93,0.00,,,0.00,Weather View 32 v70,2013-02-08 13:56:00,
2013-02-08 06:01:00,15.6,13.9,30.15,SW,225,0.0,1.0,93,0.00,,,0.00,Weather View 32 v70,2013-02-08 14:01:00,
2013-02-08 06:06:00,15.4,13.7,30.15,SW,225,0.0,1.0,93,0.00,,,0.00,Weather View 32 v70,2013-02-08 14:06:00,
2013-02-08 06:11:00,15.5,13.8,30.15,SW,225,0.0,1.0,93,0.00,,,0.00,Weather View 32 v70,2013-02-08 14:11:00,
2013-02-08 06:16:00,15.5,13.8,30.15,SW,225,0.0,1.0,93,0.00,,,0.00,Weather View 32 v70,2013-02-08 14:16:00,
2013-02-08 06:21:00,15.4,13.7,30.16,SW,225,0.0,1.0,93,0.00,,,0.00,Weather View 32 v70,2013-02-08 14:21:00,
2013-02-08 06:26:00,15.2,13.5,30.15,SW,225,0.0,1.0,93,0.00,,,0.00,Weather View 32 v70,2013-02-08 14:26:00,
2013-02-08 06:31:00,14.9,13.2,30.16,SW,225,0.0,1.0,93,0.00,,,0.00,Weather View 32 v70,2013-02-08 14:31:00,
2013-02-08 06:36:00,14.9,13.2,30.16,SW,225,0.0,1.0,93,0.00,,,0.00,Weather View 32 v70,2013-02-08 14:36:00,
2013-02-08 06:41:00,15.1,13.4,30.16,SW,225,0.0,1.0,93,0.00,,,0.00,Weather View 32 v70,2013-02-08 14:41:00,
2013-02-08 06:46:00,14.9,13.2,30.16,SW,225,0.0,1.0,93,0.00,,,0.00,Weather View 32 v70,2013-02-08 14:46:00,
2013-02-08 06:51:00,14.8,13.1,30.16,SW,225,0.0,1.0,93,0.00,,,0.00,Weather View 32 v70,2013-02-08 14:51:00,
2013-02-08 06:56:00,14.8,13.1,30.16,SW,225,0.0,1.0,93,0.00,,,0.00,Weather View 32 v70,2013-02-08 14:56:00,
2013-02-08 07:01:00,14.6,12.9,30.16,SW,225,0.0,1.0,93,0.00,,,0.00,Weather View 32 v70,2013-02-08 15:01:00,
2013-02-08 07:06:00,14.6,12.9,30.17,SW,225,0.0,1.0,93,0.00,,,0.00,Weather View 32 v70,2013-02-08 15:06:00,
2013-02-08 07:11:00,14.6,12.9,30.17,SW,225,0.0,1.0,93,0.00,,,0.00,Weather View 32 v70,2013-02-08 15:11:00,
2013-02-08 07:16:00,14.4,12.7,30.17,SW,225,0.0,1.0,93,0.00,,,0.00,Weather View 32 v70,2013-02-08 15:16:00,
2013-02-08 07:21:00,14.3,12.6,30.17,SW,225,0.0,1.0,93,0.00,,,0.00,Weather View 32 v70,2013-02-08 15:21:00,
2013-02-08 07:26:00,14.3,12.6,30.17,SW,225,0.0,1.0,93,0.00,,,0.00,Weather View 32 v70,2013-02-08 15:26:00,
2013-02-08 07:31:00,14.5,12.8,30.17,SW,225,0.0,2.0,93,0.00,,,0.00,Weather View 32 v70,2013-02-08 15:31:00,
2013-02-08 07:36:00,14.5,12.8,30.17,SW,225,0.0,2.0,93,0.00,,,0.00,Weather View 32 v70,2013-02-08 15:36:00,
2013-02-08 07:41:00,14.7,13.0,30.17,SW,225,0.0,2.0,93,0.00,,,0.00,Weather View 32 v70,2013-02-08 15:41:00,
2013-02-08 07:46:00,15.1,13.4,30.17,SW,225,0.0,2.0,93,0.00,,,0.00,Weather View 32 v70,2013-02-08 15:46:00,
2013-02-08 07:51:00,15.2,13.5,30.17,SW,225,0.0,2.0,93,0.00,,,0.00,Weather View 32 v70,2013-02-08 15:51:00,
2013-02-08 07:56:00,15.8,14.1,30.17,SW,225,0.0,2.0,93,0.00,,,0.00,Weather View 32 v70,2013-02-08 15:56:00,
2013-02-08 08:01:00,16.5,14.8,30.16,SW,225,0.0,2.0,93,0.00,,,0.00,Weather View 32 v70,2013-02-08 16:01:00,
2013-02-08 08:06:00,16.8,15.1,30.17,SW,225,0.0,2.0,93,0.00,,,0.00,Weather View 32 v70,2013-02-08 16:06:00,
2013-02-08 08:11:00,17.0,15.3,30.17,SW,225,0.0,2.0,93,0.00,,,0.00,Weather View 32 v70,2013-02-08 16:11:00,
2013-02-08 08:16:00,17.4,15.7,30.17,SW,225,0.0,2.0,93,0.00,,,0.00,Weather View 32 v70,2013-02-08 16:16:00,
2013-02-08 08:21:00,18.0,16.3,30.17,SW,225,0.0,2.0,93,0.00,,,0.00,Weather View 32 v70,2013-02-08 16:21:00,
2013-02-08 08:26:00,18.5,16.8,30.17,SW,225,0.0,2.0,93,0.00,,,0.00,Weather View 32 v70,2013-02-08 16:26:00,
2013-02-08 08:31:00,18.9,17.2,30.18,SW,225,0.0,2.0,93,0.00,,,0.00,Weather View 32 v70,2013-02-08 16:31:00,
2013-02-08 08:36:00,19.3,17.6,30.18,SW,225,0.0,2.0,93,0.00,,,0.00,Weather View 32 v70,2013-02-08 16:36:00,
2013-02-08 08:41:00,19.9,18.2,30.18,SW,225,0.0,2.0,93,0.00,,,0.00,Weather View 32 v70,2013-02-08 16:41:00,
2013-02-08 08:46:00,20.5,18.8,30.17,SW,225,0.0,2.0,93,0.00,,,0.00,Weather View 32 v70,2013-02-08 16:46:00,
2013-02-08 08:51:00,21.0,19.3,30.18,SW,225,0.0,2.0,93,0.00,,,0.00,Weather View 32 v70,2013-02-08 16:51:00,
2013-02-08 08:56:00,21.9,20.2,30.17,SW,225,0.0,2.0,93,0.00,,,0.00,Weather View 32 v70,2013-02-08 16:56:00,
2013-02-08 09:01:00,22.5,20.8,30.17,SW,225,0.0,2.0,93,0.00,,,0.00,Weather View 32 v70,2013-02-08 17:01:00,
2013-02-08 09:06:00,23.3,21.3,30.17,SW,225,0.0,2.0,92,0.00,,,0.00,Weather View 32 v70,2013-02-08 17:06:00,
2013-02-08 09:11:00,24.0,21.8,30.17,SW,225,0.0,2.0,91,0.00,,,0.00,Weather View 32 v70,2013-02-08 17:11:00,
2013-02-08 09:16:00,24.8,22.8,30.17,SW,225,0.0,2.0,92,0.00,,,0.00,Weather View 32 v70,2013-02-08 17:16:00,
2013-02-08 09:21:00,25.6,23.3,30.17,SW,225,0.0,0.0,91,0.00,,,0.00,Weather View 32 v70,2013-02-08 17:21:00,
2013-02-08 09:26:00,26.8,24.5,30.16,SW,225,0.0,0.0,91,0.00,,,0.00,Weather View 32 v70,2013-02-08 17:26:00,
2013-02-08 09:31:00,27.7,25.2,30.16,SW,225,0.0,0.0,90,0.00,,,0.00,Weather View 32 v70,2013-02-08 17:31:00,
2013-02-08 09:36:00,28.8,26.0,30.16,SW,225,0.0,1.0,89,0.00,,,0.00,Weather View 32 v70,2013-02-08 17:36:00,
2013-02-08 09:41:00,29.5,26.4,30.16,SW,225,0.0,1.0,88,0.00,,,0.00,Weather View 32 v70,2013-02-08 17:41:00,
2013-02-08 09:46:00,30.4,26.1,30.16,SW,225,0.0,1.0,84,0.00,,,0.00,Weather View 32 v70,2013-02-08 17:46:00,
2013-02-08 09:51:00,31.1,26.2,30.16,SSE,157,0.0,1.0,82,0.00,,,0.00,Weather View 32 v70,2013-02-08 17:51:00,
2013-02-08 09:56:00,31.9,27.0,30.15,SSE,157,1.0,2.0,82,0.00,,,0.00,Weather View 32 v70,2013-02-08 17:56:00,
2013-02-08 10:01:00,32.5,26.7,30.16,SSE,157,0.0,2.0,79,0.00,,,0.00,Weather View 32 v70,2013-02-08 18:01:00,
2013-02-08 10:06:00,33.0,26.9,30.16,ESE,112,0.0,2.0,78,0.00,,,0.00,Weather View 32 v70,2013-02-08 18:06:00,
2013-02-08 10:12:00,33.7,26.9,30.16,ESE,112,0.0,2.0,76,0.00,,,0.00,Weather View 32 v70,2013-02-08 18:12:00,
2013-02-08 10:17:00,34.5,27.7,30.16,ESE,112,1.0,2.0,76,0.00,,,0.00,Weather View 32 v70,2013-02-08 18:17:00,
2013-02-08 10:22:00,35.3,27.5,30.16,North,360,0.0,2.0,73,0.00,,,0.00,Weather View 32 v70,2013-02-08 18:22:00,
2013-02-08 10:27:00,35.5,26.7,30.16,NW,315,1.0,2.0,70,0.00,,,0.00,Weather View 32 v70,2013-02-08 18:27:00,
2013-02-08 10:32:00,35.3,26.8,30.16,NW,315,2.0,2.0,71,0.00,,,0.00,Weather View 32 v70,2013-02-08 18:32:00,
2013-02-08 10:37:00,35.1,25.9,30.16,WNW,292,2.0,2.0,69,0.00,,,0.00,Weather View 32 v70,2013-02-08 18:37:00,
2013-02-08 10:42:00,35.4,26.2,30.16,SW,225,0.0,2.0,69,0.00,,,0.00,Weather View 32 v70,2013-02-08 18:42:00,
2013-02-08 10:47:00,35.8,26.6,30.16,SW,225,0.0,2.0,69,0.00,,,0.00,Weather View 32 v70,2013-02-08 18:47:00,
2013-02-08 10:52:00,36.1,26.6,30.16,NW,315,1.0,3.0,68,0.00,,,0.00,Weather View 32 v70,2013-02-08 18:52:00,
2013-02-08 10:57:00,36.5,26.9,30.16,NW,315,1.0,3.0,68,0.00,,,0.00,Weather View 32 v70,2013-02-08 18:57:00,
2013-02-08 11:02:00,37.3,26.6,30.16,NE,45,1.0,3.0,65,0.00,,,0.00,Weather View 32 v70,2013-02-08 19:02:00,
2013-02-08 11:07:00,37.6,26.5,30.16,NE,45,1.0,3.0,64,0.00,,,0.00,Weather View 32 v70,2013-02-08 19:07:00,
2013-02-08 11:12:00,38.1,26.2,30.16,NE,45,1.0,3.0,62,0.00,,,0.00,Weather View 32 v70,2013-02-08 19:12:00,
2013-02-08 11:17:00,38.8,27.7,30.16,NE,45,2.0,3.0,64,0.00,,,0.00,Weather View 32 v70,2013-02-08 19:17:00,
2013-02-08 11:22:00,39.6,26.4,30.16,NE,45,1.0,3.0,59,0.00,,,0.00,Weather View 32 v70,2013-02-08 19:22:00,
2013-02-08 11:27:00,40.1,26.5,30.16,SSW,202,2.0,3.0,58,0.00,,,0.00,Weather View 32 v70,2013-02-08 19:27:00,
2013-02-08 11:32:00,40.8,26.3,30.16,NNW,337,1.0,3.0,56,0.00,,,0.00,Weather View 32 v70,2013-02-08 19:32:00,
2013-02-08 11:37:00,41.1,26.1,30.16,NW,315,1.0,3.0,55,0.00,,,0.00,Weather View 32 v70,2013-02-08 19:37:00,
2013-02-08 11:42:00,41.8,26.4,30.16,NW,315,2.0,3.0,54,0.00,,,0.00,Weather View 32 v70,2013-02-08 19:42:00,
2013-02-08 11:47:00,42.2,25.8,30.16,NW,315,2.0,3.0,52,0.00,,,0.00,Weather View 32 v70,2013-02-08 19:47:00,
2013-02-08 11:52:00,41.7,25.3,30.16,NW,315,2.0,3.0,52,0.00,,,0.00,Weather View 32 v70,2013-02-08 19:52:00,
2013-02-08 11:57:00,41.9,25.5,30.15,SW,225,1.0,3.0,52,0.00,,,0.00,Weather View 32 v70,2013-02-08 19:57:00,
2013-02-08 12:02:00,42.7,26.3,30.15,NW,315,0.0,4.0,52,0.00,,,0.00,Weather View 32 v70,2013-02-08 20:02:00,
2013-02-08 12:07:00,43.1,25.7,30.15,North,360,0.0,4.0,50,0.00,,,0.00,Weather View 32 v70,2013-02-08 20:07:00,
2013-02-08 12:12:00,42.6,24.8,30.15,NE,45,2.0,4.0,49,0.00,,,0.00,Weather View 32 v70,2013-02-08 20:12:00,
2013-02-08 12:17:00,42.3,24.5,30.15,North,360,1.0,4.0,49,0.00,,,0.00,Weather View 32 v70,2013-02-08 20:17:00,
2013-02-08 12:22:00,42.4,24.6,30.15,NE,45,0.0,4.0,49,0.00,,,0.00,Weather View 32 v70,2013-02-08 20:22:00,
2013-02-08 12:27:00,42.5,24.2,30.14,North,360,0.0,5.0,48,0.00,,,0.00,Weather View 32 v70,2013-02-08 20:27:00,
2013-02-08 12:32:00,43.0,24.1,30.15,South,180,0.0,5.0,47,0.00,,,0.00,Weather View 32 v70,2013-02-08 20:32:00,
2013-02-08 12:37:00,42.6,25.2,30.15,NW,315,2.0,5.0,50,0.00,,,0.00,Weather View 32 v70,2013-02-08 20:37:00,
2013-02-08 12:42:00,42.6,25.2,30.14,NW,315,1.0,5.0,50,0.00,,,0.00,Weather View 32 v70,2013-02-08 20:42:00,
2013-02-08 12:47:00,42.9,24.5,30.14,NNW,337,1.0,5.0,48,0.00,,,0.00,Weather View 32 v70,2013-02-08 20:47:00,
2013-02-08 12:52:00,43.2,25.3,30.14,NW,315,3.0,5.0,49,0.00,,,0.00,Weather View 32 v70,2013-02-08 20:52:00,
2013-02-08 12:57:00,42.6,25.7,30.14,NW,315,3.0,7.0,51,0.00,,,0.00,Weather View 32 v70,2013-02-08 20:57:00,
2013-02-08 13:02:00,43.2,25.3,30.14,NW,315,2.0,7.0,49,0.00,,,0.00,Weather View 32 v70,2013-02-08 21:02:00,
2013-02-08 13:07:00,43.7,25.3,30.14,WNW,292,2.0,7.0,48,0.00,,,0.00,Weather View 32 v70,2013-02-08 21:07:00,
2013-02-08 13:12:00,43.4,25.0,30.14,North,360,2.0,7.0,48,0.00,,,0.00,Weather View 32 v70,2013-02-08 21:12:00,
2013-02-08 13:17:00,43.8,24.9,30.14,NE,45,2.0,7.0,47,0.00,,,0.00,Weather View 32 v70,2013-02-08 21:17:00,
2013-02-08 13:22:00,43.1,24.7,30.14,East,90,2.0,7.0,48,0.00,,,0.00,Weather View 32 v70,2013-02-08 21:22:00,
2013-02-08 13:27:00,43.7,25.8,30.14,East,90,0.0,7.0,49,0.00,,,0.00,Weather View 32 v70,2013-02-08 21:27:00,
2013-02-08 13:32:00,44.1,25.1,30.13,NW,315,2.0,7.0,47,0.00,,,0.00,Weather View 32 v70,2013-02-08 21:32:00,
2013-02-08 13:37:00,44.5,25.0,30.13,ENE,67,6.0,7.0,46,0.00,,,0.00,Weather View 32 v70,2013-02-08 21:37:00,
2013-02-08 13:42:00,44.5,25.5,30.13,ENE,67,1.0,7.0,47,0.00,,,0.00,Weather View 32 v70,2013-02-08 21:42:00,
2013-02-08 13:47:00,45.4,25.3,30.13,North,360,1.0,7.0,45,0.00,,,0.00,Weather View 32 v70,2013-02-08 21:47:00,
2013-02-08 13:52:00,45.8,24.5,30.13,NW,315,2.0,7.0,43,0.00,,,0.00,Weather View 32 v70,2013-02-08 21:52:00,
2013-02-08 13:57:00,46.2,24.3,30.13,NW,315,2.0,6.0,42,0.00,,,0.00,Weather View 32 v70,2013-02-08 21:57:00,
2013-02-08 14:02:00,44.9,24.3,30.13,East,90,2.0,6.0,44,0.00,,,0.00,Weather View 32 v70,2013-02-08 22:02:00,
2013-02-08 14:07:00,44.2,24.2,30.13,NE,45,2.0,7.0,45,0.00,,,0.00,Weather View 32 v70,2013-02-08 22:07:00,
2013-02-08 14:12:00,44.1,24.6,30.13,NE,45,3.0,7.0,46,0.00,,,0.00,Weather View 32 v70,2013-02-08 22:12:00,
2013-02-08 14:17:00,43.9,23.9,30.13,NE,45,3.0,7.0,45,0.00,,,0.00,Weather View 32 v70,2013-02-08 22:17:00,
2013-02-08 14:22:00,43.6,24.7,30.13,East,90,2.0,9.0,47,0.00,,,0.00,Weather View 32 v70,2013-02-08 22:22:00,
2013-02-08 14:27:00,44.6,23.5,30.12,ENE,67,3.0,9.0,43,0.00,,,0.00,Weather View 32 v70,2013-02-08 22:27:00,
2013-02-08 14:32:00,44.5,23.9,30.12,ENE,67,2.0,9.0,44,0.00,,,0.00,Weather View 32 v70,2013-02-08 22:32:00,
2013-02-08 14:37:00,44.3,23.2,30.12,ENE,67,2.0,9.0,43,0.00,,,0.00,Weather View 32 v70,2013-02-08 22:37:00,
2013-02-08 14:42:00,44.3,23.7,30.12,NE,45,1.0,9.0,44,0.00,,,0.00,Weather View 32 v70,2013-02-08 22:42:00,
2013-02-08 14:47:00,45.0,22.1,30.13,NE,45,1.0,9.0,40,0.00,,,0.00,Weather View 32 v70,2013-02-08 22:47:00,
2013-02-08 14:52:00,45.0,21.5,30.13,NE,45,3.0,9.0,39,0.00,,,0.00,Weather View 32 v70,2013-02-08 22:52:00,
2013-02-08 14:57:00,45.0,22.1,30.13,NE,45,2.0,9.0,40,0.00,,,0.00,Weather View 32 v70,2013-02-08 22:57:00,
2013-02-08 15:02:00,45.4,21.9,30.13,ENE,67,1.0,9.0,39,0.00,,,0.00,Weather View 32 v70,2013-02-08 23:02:00,
2013-02-08 15:07:00,44.6,21.1,30.13,North,360,2.0,9.0,39,0.00,,,0.00,Weather View 32 v70,2013-02-08 23:07:00,
2013-02-08 15:12:00,44.8,21.9,30.13,NE,45,2.0,9.0,40,0.00,,,0.00,Weather View 32 v70,2013-02-08 23:12:00,
2013-02-08 15:17:00,45.4,21.9,30.13,North,360,1.0,9.0,39,0.00,,,0.00,Weather View 32 v70,2013-02-08 23:17:00,
2013-02-08 15:22:00,45.9,21.7,30.13,NE,45,1.0,9.0,38,0.00,,,0.00,Weather View 32 v70,2013-02-08 23:22:00,
2013-02-08 15:27:00,45.4,21.9,30.13,ENE,67,2.0,9.0,39,0.00,,,0.00,Weather View 32 v70,2013-02-08 23:27:00,
2013-02-08 15:32:00,45.2,22.3,30.13,North,360,2.0,9.0,40,0.00,,,0.00,Weather View 32 v70,2013-02-08 23:32:00,
2013-02-08 15:37:00,45.3,21.1,30.14,East,90,4.0,9.0,38,0.00,,,0.00,Weather View 32 v70,2013-02-08 23:37:00,
2013-02-08 15:42:00,45.1,21.6,30.13,NE,45,1.0,9.0,39,0.00,,,0.00,Weather View 32 v70,2013-02-08 23:42:00,
2013-02-08 15:47:00,44.9,21.4,30.13,ENE,67,2.0,9.0,39,0.00,,,0.00,Weather View 32 v70,2013-02-08 23:47:00,
2013-02-08 15:52:00,45.1,21.0,30.13,NE,45,2.0,9.0,38,0.00,,,0.00,Weather View 32 v70,2013-02-08 23:52:00,
2013-02-08 15:57:00,45.2,21.7,30.13,NNE,22,2.0,9.0,39,0.00,,,0.00,Weather View 32 v70,2013-02-08 23:57:00,
2013-02-08 16:02:00,44.8,21.3,30.13,NE,45,1.0,9.0,39,0.00,,,0.00,Weather View 32 v70,2013-02-09 00:02:00,
2013-02-08 16:07:00,44.7,21.8,30.13,North,360,0.0,9.0,40,0.00,,,0.00,Weather View 32 v70,2013-02-09 00:07:00,
2013-02-08 16:12:00,44.8,21.9,30.13,North,360,0.0,7.0,40,0.00,,,0.00,Weather View 32 v70,2013-02-09 00:12:00,
2013-02-08 16:17:00,44.3,22.0,30.13,ENE,67,1.0,6.0,41,0.00,,,0.00,Weather View 32 v70,2013-02-09 00:17:00,
2013-02-08 16:22:00,43.9,22.3,30.12,NNE,22,2.0,6.0,42,0.00,,,0.00,Weather View 32 v70,2013-02-09 00:22:00,
2013-02-08 16:27:00,43.4,22.4,30.12,NE,45,1.0,6.0,43,0.00,,,0.00,Weather View 32 v70,2013-02-09 00:27:00,
2013-02-08 16:32:00,43.2,22.7,30.12,NE,45,0.0,6.0,44,0.00,,,0.00,Weather View 32 v70,2013-02-09 00:32:00,
2013-02-08 16:37:00,42.8,22.9,30.13,NNE,22,0.0,6.0,45,0.00,,,0.00,Weather View 32 v70,2013-02-09 00:37:00,
2013-02-08 16:42:00,42.5,23.1,30.13,NNE,22,0.0,6.0,46,0.00,,,0.00,Weather View 32 v70,2013-02-09 00:42:00,
2013-02-08 16:47:00,42.3,23.5,30.12,ENE,67,1.0,6.0,47,0.00,,,0.00,Weather View 32 v70,2013-02-09 00:47:00,
2013-02-08 16:52:00,42.1,23.3,30.12,ENE,67,0.0,6.0,47,0.00,,,0.00,Weather View 32 v70,2013-02-09 00:52:00,
2013-02-08 16:57:00,41.7,23.4,30.12,ENE,67,0.0,6.0,48,0.00,,,0.00,Weather View 32 v70,2013-02-09 00:57:00,
2013-02-08 17:02:00,41.1,23.9,30.12,ENE,67,2.0,6.0,50,0.00,,,0.00,Weather View 32 v70,2013-02-09 01:02:00,
2013-02-08 17:07:00,40.5,23.8,30.12,ENE,67,0.0,3.0,51,0.00,,,0.00,Weather View 32 v70,2013-02-09 01:07:00,
2013-02-08 17:12:00,39.8,24.0,30.12,ENE,67,0.0,3.0,53,0.00,,,0.00,Weather View 32 v70,2013-02-09 01:12:00,
2013-02-08 17:17:00,39.2,23.9,30.13,ENE,67,0.0,3.0,54,0.00,,,0.00,Weather View 32 v70,2013-02-09 01:17:00,
2013-02-08 17:22:00,38.7,23.5,30.13,ENE,67,0.0,3.0,54,0.00,,,0.00,Weather View 32 v70,2013-02-09 01:22:00,
2013-02-08 17:27:00,38.2,23.4,30.13,ENE,67,0.0,3.0,55,0.00,,,0.00,Weather View 32 v70,2013-02-09 01:27:00,
2013-02-08 17:32:00,37.5,23.6,30.13,ENE,67,0.0,3.0,57,0.00,,,0.00,Weather View 32 v70,2013-02-09 01:32:00,
2013-02-08 17:37:00,36.8,23.0,30.13,ENE,67,0.0,3.0,57,0.00,,,0.00,Weather View 32 v70,2013-02-09 01:37:00,
2013-02-08 17:42:00,36.4,23.4,30.13,ENE,67,0.0,3.0,59,0.00,,,0.00,Weather View 32 v70,2013-02-09 01:42:00,
2013-02-08 17:47:00,36.0,23.4,30.13,ENE,67,0.0,2.0,60,0.00,,,0.00,Weather View 32 v70,2013-02-09 01:47:00,
2013-02-08 17:52:00,35.7,23.2,30.13,ENE,67,0.0,2.0,60,0.00,,,0.00,Weather View 32 v70,2013-02-09 01:52:00,
2013-02-08 17:57:00,35.4,23.3,30.13,ENE,67,0.0,2.0,61,0.00,,,0.00,Weather View 32 v70,2013-02-09 01:57:00,
2013-02-08 18:02:00,35.0,22.9,30.13,ENE,67,0.0,2.0,61,0.00,,,0.00,Weather View 32 v70,2013-02-09 02:02:00,
2013-02-08 18:07:00,34.7,23.0,30.13,ENE,67,0.0,1.0,62,0.00,,,0.00,Weather View 32 v70,2013-02-09 02:07:00,
2013-02-08 18:12:00,34.2,22.9,30.13,ENE,67,0.0,1.0,63,0.00,,,0.00,Weather View 32 v70,2013-02-09 02:12:00,
2013-02-08 18:18:00,34.0,23.1,30.13,ENE,67,0.0,1.0,64,0.00,,,0.00,Weather View 32 v70,2013-02-09 02:18:00,
2013-02-08 18:23:00,33.7,22.8,30.14,ENE,67,0.0,1.0,64,0.00,,,0.00,Weather View 32 v70,2013-02-09 02:23:00,
2013-02-08 18:28:00,34.4,23.5,30.14,NW,315,2.0,5.0,64,0.00,,,0.00,Weather View 32 v70,2013-02-09 02:28:00,
2013-02-08 18:33:00,35.1,24.5,30.14,NW,315,6.0,7.0,65,0.00,,,0.00,Weather View 32 v70,2013-02-09 02:33:00,
2013-02-08 18:38:00,35.1,24.5,30.14,NW,315,4.0,7.0,65,0.00,,,0.00,Weather View 32 v70,2013-02-09 02:38:00,
2013-02-08 18:43:00,35.1,24.5,30.14,NW,315,1.0,7.0,65,0.00,,,0.00,Weather View 32 v70,2013-02-09 02:43:00,
2013-02-08 18:48:00,35.1,24.5,30.14,NW,315,1.0,7.0,65,0.00,,,0.00,Weather View 32 v70,2013-02-09 02:48:00,
2013-02-08 18:53:00,35.2,24.2,30.14,NW,315,2.0,7.0,64,0.00,,,0.00,Weather View 32 v70,2013-02-09 02:53:00,
2013-02-08 18:58:00,35.3,24.0,30.14,NW,315,1.0,7.0,63,0.00,,,0.00,Weather View 32 v70,2013-02-09 02:58:00,
2013-02-08 19:03:00,34.9,24.0,30.14,WNW,292,2.0,7.0,64,0.00,,,0.00,Weather View 32 v70,2013-02-09 03:03:00,
2013-02-08 19:08:00,34.8,23.9,30.14,NW,315,3.0,7.0,64,0.00,,,0.00,Weather View 32 v70,2013-02-09 03:08:00,
2013-02-08 19:13:00,34.7,23.8,30.14,NW,315,4.0,7.0,64,0.00,,,0.00,Weather View 32 v70,2013-02-09 03:13:00,
2013-02-08 19:18:00,34.3,23.8,30.14,NW,315,2.0,7.0,65,0.00,,,0.00,Weather View 32 v70,2013-02-09 03:18:00,
2013-02-08 19:23:00,33.9,23.4,30.14,NW,315,2.0,7.0,65,0.00,,,0.00,Weather View 32 v70,2013-02-09 03:23:00,
2013-02-08 19:28:00,33.7,23.2,30.14,NW,315,4.0,7.0,65,0.00,,,0.00,Weather View 32 v70,2013-02-09 03:28:00,
2013-02-08 19:33:00,33.4,23.3,30.14,NW,315,1.0,7.0,66,0.00,,,0.00,Weather View 32 v70,2013-02-09 03:33:00,
2013-02-08 19:38:00,33.2,23.1,30.14,NW,315,2.0,7.0,66,0.00,,,0.00,Weather View 32 v70,2013-02-09 03:38:00,
2013-02-08 19:43:00,33.1,23.0,30.14,NW,315,4.0,7.0,66,0.00,,,0.00,Weather View 32 v70,2013-02-09 03:43:00,
2013-02-08 19:48:00,32.9,23.1,30.15,NW,315,2.0,7.0,67,0.00,,,0.00,Weather View 32 v70,2013-02-09 03:48:00,
2013-02-08 19:53:00,32.9,23.1,30.15,NW,315,6.0,7.0,67,0.00,,,0.00,Weather View 32 v70,2013-02-09 03:53:00,
2013-02-08 19:58:00,32.9,23.5,30.14,NNW,337,2.0,6.0,68,0.00,,,0.00,Weather View 32 v70,2013-02-09 03:58:00,
2013-02-08 20:03:00,32.7,23.6,30.14,WNW,292,2.0,7.0,69,0.00,,,0.00,Weather View 32 v70,2013-02-09 04:03:00,
2013-02-08 20:08:00,32.5,23.8,30.15,NW,315,2.0,7.0,70,0.00,,,0.00,Weather View 32 v70,2013-02-09 04:08:00,
2013-02-08 20:13:00,32.4,23.7,30.15,NW,315,5.0,7.0,70,0.00,,,0.00,Weather View 32 v70,2013-02-09 04:13:00,
2013-02-08 20:18:00,32.4,24.0,30.15,NW,315,5.0,7.0,71,0.00,,,0.00,Weather View 32 v70,2013-02-09 04:18:00,
2013-02-08 20:23:00,32.5,23.8,30.15,NW,315,4.0,8.0,70,0.00,,,0.00,Weather View 32 v70,2013-02-09 04:23:00,
2013-02-08 20:28:00,32.4,24.0,30.15,NW,315,2.0,8.0,71,0.00,,,0.00,Weather View 32 v70,2013-02-09 04:28:00,
2013-02-08 20:33:00,32.3,23.9,30.15,NW,315,2.0,8.0,71,0.00,,,0.00,Weather View 32 v70,2013-02-09 04:33:00,
2013-02-08 20:38:00,32.3,24.3,30.15,NW,315,4.0,8.0,72,0.00,,,0.00,Weather View 32 v70,2013-02-09 04:38:00,
2013-02-08 20:43:00,32.1,24.1,30.15,NW,315,2.0,8.0,72,0.00,,,0.00,Weather View 32 v70,2013-02-09 04:43:00,
2013-02-08 20:48:00,31.8,24.1,30.15,NW,315,3.0,8.0,73,0.00,,,0.00,Weather View 32 v70,2013-02-09 04:48:00,
2013-02-08 20:53:00,31.7,24.0,30.16,NW,315,3.0,8.0,73,0.00,,,0.00,Weather View 32 v70,2013-02-09 04:53:00,
2013-02-08 20:58:00,31.6,23.9,30.16,NW,315,2.0,8.0,73,0.00,,,0.00,Weather View 32 v70,2013-02-09 04:58:00,
2013-02-08 21:00:00,31.5,24.2,30.16,NW,315,2.0,8.0,74,0.00,,,0.00,Weather View 32 v70,2013-02-09 05:00:00,
2013-02-08 21:05:00,31.2,23.9,30.16,NW,315,3.0,8.0,74,0.00,,,0.00,Weather View 32 v70,2013-02-09 05:05:00,
2013-02-08 21:10:00,31.1,24.1,30.16,NNW,337,2.0,8.0,75,0.00,,,0.00,Weather View 32 v70,2013-02-09 05:10:00,
2013-02-08 21:15:00,30.9,23.6,30.16,NW,315,1.0,8.0,74,0.00,,,0.00,Weather View 32 v70,2013-02-09 05:15:00,
2013-02-08 21:20:00,30.8,23.8,30.16,NW,315,2.0,8.0,75,0.00,,,0.00,Weather View 32 v70,2013-02-09 05:20:00,
2013-02-08 21:25:00,30.6,23.6,30.16,NW,315,0.0,8.0,75,0.00,,,0.00,Weather View 32 v70,2013-02-09 05:25:00,
2013-02-08 21:30:00,30.1,23.1,30.16,NW,315,0.0,8.0,75,0.00,,,0.00,Weather View 32 v70,2013-02-09 05:30:00,
2013-02-08 21:35:00,29.6,23.3,30.16,WNW,292,0.0,8.0,77,0.00,,,0.00,Weather View 32 v70,2013-02-09 05:35:00,
2013-02-08 21:40:00,29.1,23.1,30.17,West,270,2.0,8.0,78,0.00,,,0.00,Weather View 32 v70,2013-02-09 05:40:00,
2013-02-08 21:45:00,28.8,23.1,30.17,SW,225,0.0,8.0,79,0.00,,,0.00,Weather View 32 v70,2013-02-09 05:45:00,
2013-02-08 21:50:00,28.2,22.8,30.17,SW,225,0.0,8.0,80,0.00,,,0.00,Weather View 32 v70,2013-02-09 05:50:00,
2013-02-08 21:55:00,27.8,23.0,30.16,SW,225,1.0,6.0,82,0.00,,,0.00,Weather View 32 v70,2013-02-09 05:55:00,
2013-02-08 22:00:00,27.4,22.6,30.16,SW,225,0.0,4.0,82,0.00,,,0.00,Weather View 32 v70,2013-02-09 06:00:00,
2013-02-08 22:05:00,26.9,22.4,30.16,SW,225,1.0,4.0,83,0.00,,,0.00,Weather View 32 v70,2013-02-09 06:05:00,
2013-02-08 22:10:00,26.5,22.3,30.16,SW,225,0.0,4.0,84,0.00,,,0.00,Weather View 32 v70,2013-02-09 06:10:00,
2013-02-08 22:15:00,25.9,22.0,30.16,SW,225,0.0,4.0,85,0.00,,,0.00,Weather View 32 v70,2013-02-09 06:15:00,
2013-02-08 22:20:00,25.5,21.9,30.17,SW,225,2.0,2.0,86,0.00,,,0.00,Weather View 32 v70,2013-02-09 06:20:00,
2013-02-08 22:25:00,25.2,21.3,30.17,SW,225,0.0,2.0,85,0.00,,,0.00,Weather View 32 v70,2013-02-09 06:25:00,
2013-02-08 22:30:00,24.9,21.0,30.17,SW,225,0.0,2.0,85,0.00,,,0.00,Weather View 32 v70,2013-02-09 06:30:00,
2013-02-08 22:35:00,24.7,21.4,30.17,SW,225,0.0,2.0,87,0.00,,,0.00,Weather View 32 v70,2013-02-09 06:35:00,
2013-02-08 22:40:00,24.4,21.1,30.18,SW,225,1.0,2.0,87,0.00,,,0.00,Weather View 32 v70,2013-02-09 06:40:00,
2013-02-08 22:45:00,24.0,20.7,30.18,SW,225,0.0,2.0,87,0.00,,,0.00,Weather View 32 v70,2013-02-09 06:45:00,
2013-02-08 22:50:00,23.9,20.9,30.18,SW,225,0.0,2.0,88,0.00,,,0.00,Weather View 32 v70,2013-02-09 06:50:00,
2013-02-08 22:55:00,23.8,21.0,30.18,SW,225,0.0,2.0,89,0.00,,,0.00,Weather View 32 v70,2013-02-09 06:55:00,
2013-02-08 23:00:00,23.6,21.1,30.18,SW,225,0.0,2.0,90,0.00,,,0.00,Weather View 32 v70,2013-02-09 07:00:00,
2013-02-08 23:05:00,23.4,20.9,30.18,SW,225,0.0,2.0,90,0.00,,,0.00,Weather View 32 v70,2013-02-09 07:05:00,
2013-02-08 23:10:00,23.1,20.6,30.18,SW,225,0.0,2.0,90,0.00,,,0.00,Weather View 32 v70,2013-02-09 07:10:00,
2013-02-08 23:15:00,22.9,20.7,30.18,SW,225,0.0,2.0,91,0.00,,,0.00,Weather View 32 v70,2013-02-09 07:15:00,
2013-02-08 23:20:00,22.6,20.6,30.18,SW,225,0.0,2.0,92,0.00,,,0.00,Weather View 32 v70,2013-02-09 07:20:00,
2013-02-08 23:25:00,22.4,20.2,30.18,SW,225,0.0,2.0,91,0.00,,,0.00,Weather View 32 v70,2013-02-09 07:25:00,
2013-02-08 23:30:00,22.1,20.1,30.18,SW,225,0.0,2.0,92,0.00,,,0.00,Weather View 32 v70,2013-02-09 07:30:00,
2013-02-08 23:35:00,21.9,19.9,30.18,SW,225,0.0,2.0,92,0.00,,,0.00,Weather View 32 v70,2013-02-09 07:35:00,
2013-02-08 23:40:00,21.9,20.2,30.18,SW,225,1.0,2.0,93,0.00,,,0.00,Weather View 32 v70,2013-02-09 07:40:00,
2013-02-08 23:45:00,21.8,20.1,30.18,SW,225,0.0,2.0,93,0.00,,,0.00,Weather View 32 v70,2013-02-09 07:45:00,
2013-02-08 23:50:00,21.6,19.9,30.18,SW,225,0.0,2.0,93,0.00,,,0.00,Weather View 32 v70,2013-02-09 07:50:00,
2013-02-08 23:55:00,21.3,19.6,30.18,SW,225,0.0,2.0,93,0.00,,,0.00,Weather View 32 v70,2013-02-09 07:55:00,